Skip Page Navigation
NASA JPL Caltech
NASA Logo - Jet Propulsion Laboratory + View the NASA Portal
+ Near-Earth Object (NEO) Program
Search JPL
JPL Home Earth Solar System Stars & Galaxies Technology
JPL Solar System Dynamics
BODIES ORBITS EPHEMERIDES TOOLS PHYSICAL DATA DISCOVERY FAQ SITE MAP
JPL Small-Body Database Browser
Search: [ help ]  
(2008 WQ63)
Classification: Apollo [NEO, PHA]          SPK-ID: 3440397
Ephemeris | Orbit Diagram | Orbital Elements | Physical Parameters | Close-Approach Data ]

[ hide orbit diagram ]
Orbit Diagram
Note: Make sure you have Java enabled on your browser to see the applet. This applet is provided as a 3D orbit visualization tool. The applet was implemented using 2-body methods, and hence should not be used for determining accurate long-term trajectories (over several years or decades) or planetary encounter circumstances. For accurate long-term ephemerides, please instead use our Horizons system.
Orbit Viewer

Additional Notes: the orbits shown in the applet are color coded. The planets are white lines, and the asteroid/comet is a blue line. The bright white line indicates the portion of the orbit that is above the ecliptic plane, and the darker portion is below the ecliptic plane. Likewise for the asteroid/comet orbit, the light blue indicates the portion above the ecliptic plane, and the dark blue the portion below the ecliptic plane.

Orbit Viewer applet originally written and kindly provided by Osamu Ajiki (AstroArts), and further modified by Ron Baalke (JPL).


Orbital Elements at Epoch 2456400.5 (2013-Apr-18.0) TDB
Reference: JPL 23 (heliocentric ecliptic J2000)
 Element Value Uncertainty (1-sigma)   Units 
e .6072474559074823 2.0204e-07  
a 1.734470684449624 8.5941e-08 AU
q .6812177739714804 3.8354e-07 AU
i .9309121688895641 1.1416e-05 deg
node 317.6459945148193 0.00053427 deg
peri 228.4581442287756 0.00053978 deg
M 295.3643681752095 4.7571e-05 deg
tp 2456550.302261732485
(2013-Sep-14.80226173)
0.00012138 JED
period 834.3511574216675
2.28
6.2012e-05
1.698e-07
d
yr
n .4314730036600906 3.2069e-08 deg/d
Q 2.787723594927768 1.3813e-07 AU
  Orbit Determination Parameters
   # obs. used (total)      180  
   data-arc span      2583 days (7.07 yr)  
   first obs. used      2002-07-18  
   last obs. used      2009-08-13  
   planetary ephem.      DE405  
   SB-pert. ephem.      SB405-CPV-2  
   condition code      0  
   fit RMS      .59044  
   data source      ORB  
   producer      Otto Matic  
   solution date      2011-Sep-14 20:36:55  

Additional Information
 Earth MOID = .00822851 AU 
 T_jup = 3.917 
[ show covariance matrix ]

Ephemeris | Orbit Diagram | Orbital Elements | Physical Parameters | Close-Approach Data ]

Physical Parameter Table
Parameter Symbol Value Units Sigma Reference Notes
absolute magnitude H 20.173 mag .4664 23 autocmod 2.5a

[ show close-approach data ]
Ephemeris | Orbit Diagram | Orbital Elements | Physical Parameters | Close-Approach Data ]
ABOUT SSD CREDITS/AWARDS PRIVACY/COPYRIGHT GLOSSARY LINKS
FirstGov 2013-May-23 04:09 UT
(server date/time)  
NASA Home Page
Site Manager:   Donald K. Yeomans
Webmaster  Alan B. Chamberlin